Погода в Могоче

Погода в Могоче : погода сейчас, прогноз погоды и архив. Всё, что Вы хотите узнать о погоде в Могоче!

Хотите узнать прогноз погоды в Могоче? Тогда Вам сюда: Погода в Могоче

Поиск расширенной информации на нашем сайте:

Другие новости

Новости СМИ2

Главная страница сайта

Новости сайта

03.07.2017

Напоминаем, что на нашем специализированном сайте Метеоцентр.Азия вы можете получить высокодетализированные автоматические прогнозы погоды по пунктам России, СНГ и мира в авиационном формате (включающие направление и скорость ветра, видимость, явления погоды, количество и форму облачности, нижнюю и верхнюю границу облачности).

Рекомендуем: предлагаются помещения продажа офиса в БЦ Eurasia Tower в деловом центре Москва Сити

Погода в Могоче - сегодня

Время (UTC), дата Ветер
(°,м/с) 
Видим.   Явления Облачность Т
(°С)
Тd
(°С)
f(%) Тe
(°С)
Pmin
(гПа)
dP
(гПа)
Po
(мм)
O2
(г/м3)
Тmin Tmax R s Состояние
почвы
18 22.07.17 310 (СЗ) н/о  слаб. ливневой дождь  10/10 600 м 
[Cu med, cong]
+10 +6.6 79 +10  1010.5  0.9  704  272           
21 22.07.17 300 (СЗ) 20000 м  {ливн. осадки}  9/4 1000 м кучево-дожд., средняя, верхняя 
[Cb calv|Ac lent|Cs]
+8.8 +5.1 78 +8  1011  0.2  704  274           
00 23.07.17 320 (СЗ) 20000 м  {ливн. осадки}  4/3 1000 м кучево-дожд., средняя 
[Cb calv|Ac lent]
+12.5 +5.4 62 +12  1010.1  0.1  704  270  +8.7      влажная 
03 23.07.17 340 (С) 4{10}  20000 м    8/8 600 м кучево-дожд. 
[Cb calv]
+15.2 +5.5 52 +15  1009.6  0.1  704  268           
06 23.07.17 320 (СЗ) 20000 м    8/8 600 м кучево-дожд. 
[Cb calv]
+17.1 +4.2 42 +17  1008.7  -0.4  703  266           
09 23.07.17 340 (С) 2{11}  20000 м    6/4 1000 м кучево-дожд., средняя 
[Cb calv|Ac trans]
+17.4 +4.5 42 +18  1008.9  0.3  704  266           
12 23.07.17 270 (З) 20000 м    4/4 1000 м 
[Sc diur, vesp]
+11.8 +6.2 69 +12  1011  0.6  704  271    +17.8       
15 23.07.17 300 (СЗ) 20000 м    ясно 
+5.8 +4.4 91 +7  1013.2  0.6  705  277           
18 23.07.17 тихо ()   20000 м    ясно 
+6.5 +5.1 91 +7  1012.6  -0.4  704  276           
21 23.07.17 тихо ()   20000 м    8/0 средняя, верхняя 
[Ac lent|Ci sp]
+6.9 +5.4 90 +7  1012  -0.5  704  276           
00 24.07.17 290 (З) 20000 м    8/0 средняя 
[Ac trans]
+15.2 +6.6 56 +16  1010  0.2  704  268  +5.3        влажная 
03 24.07.17 300 (СЗ) 3{10}  20000 м    6/6 1000 м 
[Cu med, cong]
+18 +7 49 +19  1009.3  0.2  704  265           
06 24.07.17 340 (С) 20000 м    6/6 1000 м кучево-дожд. 
[Cb calv]
+21 +6.7 39 +21  1007.6  -0.9  703  262           
09 24.07.17 310 (СЗ) 20000 м    6/6 1000 м кучево-дожд. 
[Cb calv]
+18.2 +9.1 55 +19  1008.2  703  264           
12 24.07.17 250 (З) 20000 м    3/3 1000 м 
[Sc diur, vesp]
+14.8 +9.2 69 +16  1008.9  -0.1  703  267    +21.4       
15 24.07.17 290 (З) 20000 м    3/0 средняя 
[Ac lent]
+9.3 +7.6 89 +9  1011.7  1.2  704  273           
18 24.07.17 260 (З) 20000 м    ясно 
+5.2 +4.3 94 +6  1013.2  0.3  704  278           
21 24.07.17 тихо ()   0200 м  туман  ?/?  
+3.9 +3.5 97 +4  1013.4  -0.1  704  279           
00 25.07.17 тихо ()   20000 м  {туман}  ясно 
+11 +7.7 80 +11  1011.5  704  271  +3.2        влажная 
03 25.07.17 200 (Ю) 20000 м    3/3 1000 м 
[Cu med, cong]
+23.3 +8.4 39 +24  1006.5  -1.8  703  259           
06 25.07.17 160 (Ю) 20000 м    8/8 1000 м кучево-дожд. 
[Cb calv]
+24.9 +6.9 32 +25  1004.3  -1.7  702  258           
09 25.07.17 230 (ЮЗ) 20000 м    6/6 1000 м 
[]
+25.5 +8.2 33 +26  1003.1  -0.9  701  257           
12 25.07.17 200 (Ю) 20000 м    6/6 1000 м кучево-дожд. 
[Cb calv]
+17.9 +10.6 62 +22  1005.3  0.3  701  263    +26       
15 25.07.17 150 (ЮВ) н/о  слаб. ливневой дождь  10/10 600 м кучево-дожд. 
[Cb calv]
+15.2 +10.4 73 +20  1006.3  0.4  702  266           
18 25.07.17 260 (З) 20000 м  {ливн. осадки}  3/0 средняя 
[Ac lent]
+9.7 +8.4 92 +10  1008.1  0.3  702  271           
Время (UTC), дата Ветер
(°,м/с) 
Видим.   Явления Облачность Т
(°С)
Тd
(°С)
f(%) Тe
(°С)
Pmin
(гПа)
dP
(гПа)
Po
(мм)
O2
(г/м3)
Тmin Tmax R s Состояние
почвы

Для получения пояснительной информации подведите курсор к названию столбца.

ПОГОДА в Могоче - архив

Всё, что Вы хотите узнать о погоде в Могоче - удобно и подробно!

Выберите нужную дату (начиная с 1 января 2015* года) и нажмите кнопку "Найти".
Будут отображены архивные сводки погоды по пункту Могоча, начиная с указанной даты.


Отображать данные в формате CSV (для использования в таблицах Excel)


Внимание! Наш архив погоды предназначен исключительно для личного некоммерческого использования в познавательных целях. Если Вам необходимы официальные справки о состоянии погоды (для производственных, юридических, коммерческих и т.п. целей), обращайтесь в органы Росгидромета.

*Примечание: данная дата относится к архиву по метеостанциям СССР (Россия, СНГ, Балтия).
Архив по метеостанциям Зарубежной Европы и Азии (кроме Китая) хранится 10 дней, по другим регионам земного шара (Китай, Африка, Америка, Австралия, Океания) - 1 день.

Могоча - район местоположения метеостанции


Название, широта, долгота, высота метеостанции:
Могоча 53.8°ш. 119.7°д. 625 м над ур. моря [Российская Федерация]

Дополнительная информация

В oтличие oт бoльшинства пoгoдных сайтoв мы публикуем пoдрoбную метеoинфoрмацию в детальнoм прoфессиoнальнoм фoрмате.

Характеристики температуры и влажнoсти вoздуха измеряются на высoте 2 м в тени вдали oт зданий и деревьев.
Скoрoсть ветра измеряется на высoте 10 м (на урoвне рoста челoвека скoрoсть ветра ниже в 1.5-2 раза). Если метеoстанция нахoдится в гoрoде или в лесу, тo скoрoсть ветра занижена на 2-4 м/с пo сравнению с oткрытым местoм. Скoрoсть ветра над акватoриями крупных рек и oзёр, а также на вершинах хoлмoв на 2-5 м/с выше, чем в oбычных услoвиях.
Атмoсфернoе давление в разных тoчках местнoсти мoжет значительнo oтличаться oт давления на метеoстанции, в зависимoсти oт услoвий рельефа (при пoдъёме на 10 м давление пoнижается примернo на 1 мм рт.ст.).